| time (UTC) | temp C | wind direction | speed KPH | gust KPH | rain 1hr cm | rain 24hr cm | rain mn cm | humidity % | barometer mb |
| 20260508025240 | 30 | 0.0 | 0.0 | 0.00 | 0.00 | 0.00 | 67 | 994.0 | |
| 20260508024235 | 30 | 0.0 | 0.0 | 0.00 | 0.00 | 0.00 | 68 | 994.0 | |
| 20260508023229 | 30 | 0.0 | 0.0 | 0.00 | 0.00 | 0.00 | 68 | 993.9 | |
| 20260508022223 | 30 | 0.0 | 0.0 | 0.00 | 0.00 | 0.00 | 68 | 994.0 | |
| 20260508021218 | 30 | 0.0 | 0.0 | 0.00 | 0.00 | 0.00 | 68 | 994.0 | |
| 20260508020213 | 30 | 0.0 | 0.0 | 0.00 | 0.00 | 0.00 | 69 | 994.0 | |
| 20260508015203 | 30 | 0.0 | 0.0 | 0.00 | 0.00 | 0.00 | 69 | 993.9 | |
| 20260508014158 | 30 | 0.0 | 0.0 | 0.00 | 0.00 | 0.00 | 69 | 993.8 | |
| 20260508013152 | 30 | 0.0 | 0.0 | 0.00 | 0.00 | 0.00 | 69 | 993.9 | |
| 20260508012147 | 29 | 0.0 | 0.0 | 0.00 | 0.00 | 0.00 | 71 | 993.6 | |
| 20260508011141 | 29 | 0.0 | 0.0 | 0.00 | 0.00 | 0.00 | 73 | 993.5 | |
| 20260508010136 | 29 | 0.0 | 0.0 | 0.00 | 0.00 | 0.00 | 73 | 993.5 | |
| 20260508005130 | 29 | 0.0 | 0.0 | 0.00 | 0.00 | 0.00 | 72 | 993.4 | |
| 20260508004124 | 29 | 0.0 | 0.0 | 0.00 | 0.00 | 0.00 | 71 | 993.5 | |
| 20260508003119 | 29 | 0.0 | 0.0 | 0.00 | 0.00 | 0.00 | 71 | 993.5 | |
| 20260508002113 | 29 | 0.0 | 0.0 | 0.00 | 0.00 | 0.00 | 71 | 993.5 | |
| 20260508001108 | 28 | 0.0 | 0.0 | 0.00 | 0.00 | 0.00 | 72 | 993.4 | |
| 20260507235056 | 29 | 0.0 | 0.0 | 0.00 | 0.00 | 0.00 | 72 | 993.4 | |
| 20260507234051 | 29 | 0.0 | 0.0 | 0.00 | 0.00 | 0.00 | 71 | 993.2 | |
| 20260507233045 | 29 | 0.0 | 0.0 | 0.00 | 0.00 | 0.00 | 71 | 993.0 | |
| 20260507232040 | 29 | 0.0 | 0.0 | 0.00 | 0.00 | 0.00 | 71 | 993.0 | |
| 20260507231034 | 29 | 0.0 | 0.0 | 0.00 | 0.00 | 0.00 | 71 | 992.9 | |
| 20260507230029 | 30 | 0.0 | 0.0 | 0.00 | 0.00 | 0.00 | 72 | 992.7 | |
| 20260507225023 | 29 | 0.0 | 0.0 | 0.00 | 0.00 | 0.00 | 72 | 992.6 | |
| 20260507224017 | 29 | 0.0 | 0.0 | 0.00 | 0.00 | 0.00 | 74 | 992.6 | |
| 20260507223012 | 29 | 0.0 | 0.0 | 0.00 | 0.00 | 0.00 | 75 | 992.4 | |
| 20260507222006 | 29 | 0.0 | 0.0 | 0.00 | 0.00 | 0.00 | 79 | 992.1 | |
| 20260507221001 | 29 | 0.0 | 0.0 | 0.00 | 0.00 | 0.00 | 81 | 991.9 | |
| 20260507215955 | 29 | 0.0 | 0.0 | 0.00 | 0.00 | 0.00 | 81 | 991.6 | |
| 20260507214929 | 29 | 0.0 | 0.0 | 0.00 | 0.00 | 0.00 | 80 | 991.5 | |
| 20260507213924 | 29 | 0.0 | 0.0 | 0.00 | 0.00 | 0.00 | 80 | 991.4 | |
| 20260507212918 | 29 | 0.0 | 0.0 | 0.00 | 0.00 | 0.00 | 80 | 991.3 | |
| 20260507211742 | 29 | 0.0 | 0.0 | 0.00 | 0.00 | 0.00 | 77 | 991.2 | |
| 20260507210736 | 29 | 0.0 | 0.0 | 0.00 | 0.00 | 0.00 | 76 | 991.0 | |
| 20260507205731 | 29 | 0.0 | 0.0 | 0.00 | 0.00 | 0.00 | 75 | 991.0 | |
| 20260507204725 | 30 | 0.0 | 0.0 | 0.00 | 0.00 | 0.00 | 72 | 990.9 | |
| 20260507203719 | 30 | 0.0 | 0.0 | 0.00 | 0.00 | 0.00 | 74 | 990.9 | |
| 20260507202714 | 30 | 0.0 | 0.0 | 0.00 | 0.00 | 0.00 | 71 | 991.0 | |
| 20260507201708 | 30 | 0.0 | 0.0 | 0.00 | 0.00 | 0.00 | 72 | 990.9 | |
| 20260507200703 | 30 | 0.0 | 0.0 | 0.00 | 0.00 | 0.00 | 70 | 990.8 | |
| 20260507195657 | 30 | 0.0 | 0.0 | 0.00 | 0.00 | 0.00 | 68 | 990.8 | |
| 20260507194652 | 30 | 0.0 | 0.0 | 0.00 | 0.00 | 0.00 | 67 | 990.9 | |
| 20260507193646 | 30 | 0.0 | 0.0 | 0.00 | 0.00 | 0.00 | 67 | 990.9 | |
| 20260507192640 | 30 | 0.0 | 0.0 | 0.00 | 0.00 | 0.00 | 66 | 991.2 | |
| 20260507191635 | 30 | 0.0 | 0.0 | 0.00 | 0.00 | 0.00 | 67 | 991.0 | |
| 20260507190629 | 30 | 0.0 | 0.0 | 0.00 | 0.00 | 0.00 | 66 | 990.9 | |
| 20260507185624 | 30 | 0.0 | 0.0 | 0.00 | 0.00 | 0.00 | 67 | 991.0 | |
| 20260507184618 | 30 | 0.0 | 0.0 | 0.00 | 0.00 | 0.00 | 66 | 991.1 | |
| 20260507183613 | 30 | 0.0 | 0.0 | 0.00 | 0.00 | 0.00 | 67 | 991.3 | |
| 20260507182607 | 30 | 0.0 | 0.0 | 0.00 | 0.00 | 0.00 | 68 | 991.3 | |
| 20260507181602 | 30 | 0.0 | 0.0 | 0.00 | 0.00 | 0.00 | 68 | 991.6 | |
| 20260507180558 | 30 | 0.0 | 0.0 | 0.00 | 0.00 | 0.00 | 68 | 991.6 | |
| 20260507175550 | 30 | 0.0 | 0.0 | 0.00 | 0.00 | 0.00 | 68 | 991.5 | |
| 20260507174545 | 30 | 0.0 | 0.0 | 0.00 | 0.00 | 0.00 | 68 | 991.7 | |
| 20260507173539 | 30 | 0.0 | 0.0 | 0.00 | 0.00 | 0.00 | 66 | 991.8 | |
| 20260507172533 | 30 | 0.0 | 0.0 | 0.00 | 0.00 | 0.00 | 66 | 991.8 | |
| 20260507171527 | 30 | 0.0 | 0.0 | 0.00 | 0.00 | 0.00 | 65 | 992.0 | |
| 20260507170521 | 30 | 0.0 | 0.0 | 0.00 | 0.00 | 0.00 | 65 | 992.1 | |
| 20260507165516 | 30 | 0.0 | 0.0 | 0.00 | 0.00 | 0.00 | 64 | 992.2 | |
| 20260507164510 | 30 | 0.0 | 0.0 | 0.00 | 0.00 | 0.00 | 64 | 992.2 | |
| 20260507163505 | 30 | 0.0 | 0.0 | 0.00 | 0.00 | 0.00 | 65 | 992.1 | |
| 20260507162459 | 31 | 0.0 | 0.0 | 0.00 | 0.00 | 0.00 | 64 | 992.1 | |
| 20260507161454 | 31 | 0.0 | 0.0 | 0.00 | 0.00 | 0.00 | 64 | 992.1 | |
| 20260507160446 | 30 | 0.0 | 0.0 | 0.00 | 0.00 | 0.00 | 63 | 991.9 | |
| 20260507155441 | 31 | 0.0 | 0.0 | 0.00 | 0.00 | 0.00 | 65 | 991.7 | |
| 20260507154435 | 31 | 0.0 | 0.0 | 0.00 | 0.00 | 0.00 | 66 | 991.7 | |
| 20260507153430 | 31 | 0.0 | 0.0 | 0.00 | 0.00 | 0.00 | 65 | 991.4 | |
| 20260507152424 | 31 | 0.0 | 0.0 | 0.00 | 0.00 | 0.00 | 65 | 991.1 | |
| 20260507151419 | 31 | 0.0 | 0.0 | 0.00 | 0.00 | 0.00 | 64 | 991.1 | |
| 20260507150413 | 31 | 0.0 | 0.0 | 0.00 | 0.00 | 0.00 | 64 | 991.0 | |
| 20260507145407 | 31 | 0.0 | 0.0 | 0.00 | 0.00 | 0.00 | 65 | 990.9 | |
| 20260507144402 | 31 | 0.0 | 0.0 | 0.00 | 0.00 | 0.00 | 64 | 990.9 | |
| 20260507143356 | 31 | 0.0 | 0.0 | 0.00 | 0.00 | 0.00 | 64 | 990.8 | |
| 20260507142351 | 31 | 0.0 | 0.0 | 0.00 | 0.00 | 0.00 | 64 | 990.8 | |
| 20260507141345 | 31 | 0.0 | 0.0 | 0.00 | 0.00 | 0.00 | 64 | 990.8 | |
| 20260507140339 | 31 | 0.0 | 0.0 | 0.00 | 0.00 | 0.00 | 63 | 990.6 | |
| 20260507135334 | 31 | 0.0 | 0.0 | 0.00 | 0.00 | 0.00 | 63 | 990.5 | |
| 20260507134328 | 31 | 0.0 | 0.0 | 0.00 | 0.00 | 0.00 | 62 | 990.6 | |
| 20260507133323 | 31 | 0.0 | 0.0 | 0.00 | 0.00 | 0.00 | 63 | 990.5 | |
| 20260507132317 | 31 | 0.0 | 0.0 | 0.00 | 0.00 | 0.00 | 62 | 990.5 | |
| 20260507131312 | 31 | 0.0 | 0.0 | 0.00 | 0.00 | 0.00 | 62 | 990.3 | |
| 20260507130306 | 31 | 0.0 | 0.0 | 0.00 | 0.00 | 0.00 | 63 | 990.2 | |
| 20260507125300 | 31 | 0.0 | 0.0 | 0.00 | 0.00 | 0.00 | 63 | 990.2 | |
| 20260507124255 | 31 | 0.0 | 0.0 | 0.00 | 0.00 | 0.00 | 63 | 989.7 | |
| 20260507123249 | 32 | 0.0 | 0.0 | 0.00 | 0.00 | 0.00 | 62 | 989.7 | |
| 20260507122153 | 32 | 0.0 | 0.0 | 0.00 | 0.00 | 0.00 | 63 | 989.3 | |
| 20260507121148 | 32 | 0.0 | 0.0 | 0.00 | 0.00 | 0.00 | 63 | 989.0 | |
| 20260507120142 | 32 | 0.0 | 0.0 | 0.00 | 0.00 | 0.00 | 64 | 988.5 | |
| 20260507115137 | 32 | 0.0 | 0.0 | 0.00 | 0.00 | 0.00 | 63 | 988.6 | |
| 20260507114131 | 32 | 0.0 | 0.0 | 0.00 | 0.00 | 0.00 | 62 | 988.2 | |
| 20260507113125 | 32 | 0.0 | 0.0 | 0.00 | 0.00 | 0.00 | 64 | 987.9 | |
| 20260507112120 | 32 | 0.0 | 0.0 | 0.00 | 0.00 | 0.00 | 65 | 987.7 | |
| 20260507111114 | 32 | 0.0 | 0.0 | 0.00 | 0.00 | 0.00 | 65 | 987.5 | |
| 20260507110109 | 32 | 0.0 | 0.0 | 0.00 | 0.00 | 0.00 | 66 | 987.3 | |
| 20260507105103 | 32 | 0.0 | 0.0 | 0.00 | 0.00 | 0.00 | 66 | 987.2 | |
| 20260507104057 | 32 | 0.0 | 0.0 | 0.00 | 0.00 | 0.00 | 66 | 987.2 | |
| 20260507103052 | 32 | 0.0 | 0.0 | 0.00 | 0.00 | 0.00 | 66 | 987.3 | |
| 20260507102046 | 32 | 0.0 | 0.0 | 0.00 | 0.00 | 0.00 | 65 | 987.5 | |
| 20260507101040 | 32 | 0.0 | 0.0 | 0.00 | 0.00 | 0.00 | 64 | 987.6 | |
| 20260507100035 | 32 | 0.0 | 0.0 | 0.00 | 0.00 | 0.00 | 64 | 987.7 | |
| 20260507095029 | 32 | 0.0 | 0.0 | 0.00 | 0.00 | 0.00 | 63 | 987.8 | |
| 20260507094023 | 32 | 0.0 | 0.0 | 0.00 | 0.00 | 0.00 | 64 | 987.5 | |
| 20260507093018 | 32 | 0.0 | 0.0 | 0.00 | 0.00 | 0.00 | 64 | 987.4 | |
| 20260507092012 | 32 | 0.0 | 0.0 | 0.00 | 0.00 | 0.00 | 64 | 987.3 | |
| 20260507091007 | 32 | 0.0 | 0.0 | 0.00 | 0.00 | 0.00 | 65 | 986.9 | |
| 20260507090001 | 32 | 0.0 | 0.0 | 0.00 | 0.00 | 0.00 | 65 | 987.0 | |
| 20260507084955 | 32 | 0.0 | 0.0 | 0.00 | 0.00 | 0.00 | 62 | 987.3 | |
| 20260507083950 | 32 | 0.0 | 0.0 | 0.00 | 0.00 | 0.00 | 62 | 987.3 | |
| 20260507082944 | 32 | 0.0 | 0.0 | 0.00 | 0.00 | 0.00 | 62 | 987.2 | |
| 20260507081938 | 32 | 0.0 | 0.0 | 0.00 | 0.00 | 0.00 | 63 | 987.3 | |
| 20260507080933 | 31 | 0.0 | 0.0 | 0.00 | 0.00 | 0.00 | 64 | 987.5 | |
| 20260507075927 | 31 | 0.0 | 0.0 | 0.00 | 0.00 | 0.00 | 65 | 987.8 | |
| 20260507074922 | 31 | 0.0 | 0.0 | 0.00 | 0.00 | 0.00 | 64 | 988.0 | |
| 20260507073916 | 31 | 0.0 | 0.0 | 0.00 | 0.00 | 0.00 | 62 | 988.0 | |
| 20260507072911 | 32 | 0.0 | 0.0 | 0.00 | 0.00 | 0.00 | 66 | 988.2 | |
| 20260507071905 | 31 | 0.0 | 0.0 | 0.00 | 0.00 | 0.00 | 64 | 988.2 | |
| 20260507070859 | 31 | 0.0 | 0.0 | 0.00 | 0.00 | 0.00 | 65 | 988.5 | |
| 20260507065854 | 31 | 0.0 | 0.0 | 0.00 | 0.00 | 0.00 | 68 | 988.7 | |
| 20260507064848 | 32 | 0.0 | 0.0 | 0.00 | 0.00 | 0.00 | 69 | 988.9 | |
| 20260507063843 | 32 | 0.0 | 0.0 | 0.00 | 0.00 | 0.00 | 66 | 989.4 | |
| 20260507062837 | 32 | 0.0 | 0.0 | 0.00 | 0.00 | 0.00 | 57 | 989.3 | |
| 20260507061831 | 32 | 0.0 | 0.0 | 0.00 | 0.00 | 0.00 | 57 | 989.6 | |
| 20260507060826 | 32 | 0.0 | 0.0 | 0.00 | 0.00 | 0.00 | 54 | 989.8 | |
| 20260507055820 | 32 | 0.0 | 0.0 | 0.00 | 0.00 | 0.00 | 64 | 990.1 | |
| 20260507054815 | 31 | 0.0 | 0.0 | 0.00 | 0.00 | 0.00 | 66 | 990.0 | |
| 20260507053809 | 31 | 0.0 | 0.0 | 0.00 | 0.00 | 0.00 | 65 | 990.1 | |
| 20260507052804 | 31 | 0.0 | 0.0 | 0.00 | 0.00 | 0.00 | 62 | 990.3 | |
| 20260507051758 | 32 | 0.0 | 0.0 | 0.00 | 0.00 | 0.00 | 66 | 990.3 | |
| 20260507050752 | 31 | 0.0 | 0.0 | 0.00 | 0.00 | 0.00 | 68 | 990.5 | |
| 20260507045746 | 31 | 0.0 | 0.0 | 0.00 | 0.00 | 0.00 | 67 | 990.7 | |
| 20260507044741 | 31 | 0.0 | 0.0 | 0.00 | 0.00 | 0.00 | 65 | 990.7 | |
| 20260507043735 | 31 | 0.0 | 0.0 | 0.00 | 0.00 | 0.00 | 67 | 991.0 | |
| 20260507042730 | 31 | 0.0 | 0.0 | 0.00 | 0.00 | 0.00 | 69 | 991.2 | |
| 20260507041724 | 31 | 0.0 | 0.0 | 0.00 | 0.00 | 0.00 | 71 | 991.5 | |
| 20260507040719 | 31 | 0.0 | 0.0 | 0.00 | 0.00 | 0.00 | 71 | 991.4 | |
| 20260507035713 | 31 | 0.0 | 0.0 | 0.00 | 0.00 | 0.00 | 71 | 991.6 | |
| 20260507034707 | 31 | 0.0 | 0.0 | 0.00 | 0.00 | 0.00 | 74 | 991.6 | |
| 20260507033702 | 30 | 0.0 | 0.0 | 0.00 | 0.00 | 0.00 | 73 | 991.7 | |
| 20260507032656 | 30 | 0.0 | 0.0 | 0.00 | 0.00 | 0.00 | 75 | 991.7 | |
| 20260507031651 | 30 | 0.0 | 0.0 | 0.00 | 0.00 | 0.00 | 76 | 991.9 | |
| 20260507030645 | 30 | 0.0 | 0.0 | 0.00 | 0.00 | 0.00 | 76 | 991.9 |